Wind_Speed
34 35 37 36 36 37 38 38 37 36 36 35 32 33 32 29 28 27 26 24 23 23 23 21 21 21 20 20 20 20 19 19 19 18 18 18 18 17 17 16 16 16 17
36 37 38 38 38 39 38 38 37 36 34 34 31 30 26 26 26 24 23 22 23 24 23 22 21 21 21 21 21 20 20 20 19 19 19 19 19 18 17 16 16 15 16
36 38 38 39 38 38 38 39 37 34 33 33 31 28 26 25 23 22 22 24 25 25 25 24 23 22 23 23 22 22 22 22 22 21 21 21 21 20 19 18 17 16 16
35 36 36 36 35 35 35 36 36 35 34 33 32 30 27 25 25 25 26 27 27 27 27 27 26 25 25 24 24 25 24 25 25 24 23 23 23 22 22 21 19 18 17
32 33 34 34 34 34 34 35 36 37 37 35 34 33 32 30 30 29 30 31 32 32 31 30 30 29 29 28 28 28 28 27 27 27 26 26 25 25 25 23 22 21 20
30 31 32 32 33 33 33 35 37 38 37 38 39 38 37 36 36 36 36 36 37 36 36 36 35 34 34 33 32 32 32 31 30 29 29 29 28 28 28 27 26 24 23
31 32 33 34 35 35 36 37 38 40 41 42 43 43 43 42 42 42 42 42 42 42 42 41 41 40 38 38 37 36 36 35 34 33 33 32 32 31 31 30 29 28 26
34 35 36 37 38 39 41 42 44 45 45 46 47 47 48 48 48 48 48 49 48 48 47 47 47 46 45 44 43 42 41 40 39 39 37 36 35 35 34 33 32 31 30
37 39 40 40 41 42 44 45 47 48 48 49 50 50 51 51 52 52 52 52 53 53 53 52 51 51 50 49 48 47 46 45 44 43 42 40 39 38 37 36 35 34 32
41 43 43 44 45 46 48 49 50 51 51 52 53 53 53 54 54 55 56 56 56 56 56 56 56 55 55 54 53 52 51 49 48 47 46 45 43 42 40 39 37 36 34
43 44 46 47 49 50 51 52 53 54 54 55 56 56 57 57 57 57 57 57 58 58 59 59 59 59 58 58 57 56 55 54 53 51 50 48 47 45 44 42 40 38 36
46 47 49 51 52 53 55 56 57 57 58 58 58 58 59 59 58 58 58 58 58 59 59 60 60 60 61 61 61 60 59 58 57 56 54 52 51 49 48 46 43 41 39
49 50 52 53 55 57 58 59 59 60 60 60 59 59 58 58 58 58 57 57 57 57 58 59 60 60 61 61 62 62 62 61 60 59 58 56 54 53 51 49 47 45 42
50 52 54 56 58 59 60 61 61 61 60 60 59 59 58 57 56 55 54 54 54 53 53 54 55 56 57 58 59 60 61 61 62 61 60 59 57 55 54 52 50 47 45
52 54 56 58 59 60 60 61 61 61 60 60 58 57 56 55 53 52 50 49 49 48 48 48 49 49 50 51 53 56 57 59 60 61 61 60 59 58 56 54 52 50 47
52 54 56 58 59 60 60 60 60 59 58 57 56 54 53 52 50 48 46 44 43 43 43 41 42 42 42 44 45 47 50 53 55 58 60 61 60 59 58 56 54 51 49
53 54 56 57 58 58 58 58 56 55 55 54 53 52 50 48 46 44 43 41 40 39 39 37 37 37 37 38 39 40 42 45 48 52 55 58 59 59 59 58 56 53 50
52 53 56 57 57 57 57 57 56 54 52 51 50 48 46 44 42 41 39 38 38 38 38 37 37 35 35 35 34 35 36 37 40 43 47 52 56 58 58 57 56 54 51
53 55 56 57 57 57 56 54 52 50 48 47 45 43 42 41 39 38 37 36 36 36 36 36 36 35 34 34 32 32 32 32 33 35 39 44 49 53 56 56 55 54 52
54 55 55 55 55 56 55 52 49 47 44 43 40 38 36 35 34 34 34 34 34 34 34 34 34 34 33 32 31 31 30 30 31 32 34 37 41 46 50 52 53 53 52
53 53 54 55 55 55 53 50 47 45 42 39 35 33 31 30 30 30 29 29 29 30 31 31 32 31 30 30 30 30 29 30 30 31 32 34 37 41 45 47 48 50 51
51 52 54 54 54 53 51 48 44 42 39 35 31 28 26 24 24 23 23 23 25 26 27 27 28 27 27 27 28 28 28 28 28 29 30 32 34 38 41 42 45 47 49
51 52 53 53 52 51 49 46 42 39 36 32 29 26 23 21 18 17 17 18 19 20 21 23 23 23 23 23 24 25 25 25 25 26 27 29 31 35 38 40 42 44 45
49 50 51 51 51 49 47 45 42 39 36 32 28 24 21 18 15 13 12 13 14 16 17 19 20 20 20 21 21 21 22 22 22 22 23 25 28 33 36 38 41 42 43
48 49 50 50 49 49 47 44 42 39 35 32 27 23 19 15 12 10 8 7 8 11 13 15 16 17 17 17 17 18 18 18 18 19 19 22 25 31 33 34 37 39 41
47 48 49 48 48 47 47 45 42 39 36 31 27 22 18 15 12 7 5 4 5 8 11 12 13 13 14 14 14 15 16 15 14 15 16 19 24 28 31 32 34 36 38
Wind_Direction
280 282 284 285 287 288 289 292 294 295 291 290 288 289 283 276 273 267 267 268 268 273 279 282 277 275 274 271 267 265 260 258 256 256 255 254 255 255 257 259 260 258 257
283 284 286 287 290 290 288 289 292 293 292 292 289 288 284 281 274 268 266 268 272 276 278 278 276 273 272 269 266 261 257 256 255 255 253 252 251 252 254 257 260 261 259
285 286 286 287 288 288 287 288 291 290 291 291 289 289 289 281 275 273 269 269 272 273 274 275 275 272 270 267 264 259 255 254 254 253 252 251 250 250 252 254 257 260 261
287 289 289 287 286 285 283 285 286 286 287 289 289 289 286 282 280 277 274 273 273 273 274 275 273 271 270 267 263 260 256 254 252 252 251 251 251 250 252 253 254 256 258
293 291 292 290 289 288 287 286 285 285 286 286 287 288 287 284 282 279 277 275 274 273 273 272 271 269 268 267 265 262 257 255 253 252 251 250 249 249 251 253 254 254 256
297 296 297 297 294 293 292 290 288 287 285 285 285 285 285 284 282 278 276 275 273 272 271 270 268 267 266 265 264 261 258 257 255 254 252 250 248 247 248 251 253 255 255
301 301 300 300 298 296 294 292 291 288 287 287 286 285 283 281 279 278 275 273 271 270 269 267 266 264 263 263 262 260 258 257 256 255 253 251 249 247 247 248 250 253 255
301 301 301 300 299 295 293 291 290 288 287 286 285 284 282 280 278 276 274 272 270 268 267 265 264 262 261 260 259 258 257 256 255 254 253 252 250 248 247 247 248 250 252
302 302 302 301 299 297 295 293 291 290 288 286 284 283 281 278 277 275 274 271 270 268 267 264 262 261 260 259 257 256 255 254 253 253 252 252 251 249 247 246 246 247 249
306 305 305 303 302 300 298 296 294 292 290 288 286 284 282 280 278 275 274 272 269 267 265 263 261 260 259 257 256 255 254 253 252 251 250 250 250 249 248 246 246 245 245
307 307 306 304 303 302 300 298 296 294 292 289 287 285 283 281 279 277 275 272 270 268 265 263 260 259 257 256 255 253 252 251 250 250 248 248 248 248 247 246 245 244 243
310 310 309 308 306 305 303 301 299 296 294 291 289 287 285 283 281 279 276 273 271 268 266 263 260 259 257 255 254 253 251 250 249 248 247 246 246 246 246 245 244 244 243
314 313 312 311 309 307 305 303 301 298 296 294 291 289 286 284 282 280 277 274 271 268 266 263 261 258 257 255 254 252 251 250 248 247 246 245 245 245 244 244 243 243 242
316 315 314 313 311 309 307 305 302 300 298 295 293 291 288 286 284 282 279 276 272 268 265 262 259 257 256 254 253 252 250 249 248 247 245 244 243 243 243 242 241 241 241
318 317 316 315 313 311 309 307 304 301 299 297 295 292 289 287 285 282 279 275 272 269 265 262 259 256 254 253 252 251 250 248 247 246 244 243 242 241 241 240 239 239 239
321 320 318 317 315 313 311 309 306 303 300 298 296 293 290 287 284 281 278 274 269 265 262 260 257 254 253 252 252 251 250 249 247 246 244 242 241 239 239 238 237 237 237
324 323 322 321 319 317 315 312 309 306 303 300 297 294 290 286 282 279 275 271 267 262 258 255 253 252 252 252 251 251 250 249 248 247 244 241 239 238 237 236 235 234 234
327 327 327 325 323 321 318 315 312 308 305 303 300 295 290 285 282 278 273 268 263 258 255 253 252 251 251 251 251 251 251 251 249 248 245 242 238 236 235 234 233 232 232
331 331 330 328 327 325 322 320 317 314 310 306 302 297 291 287 281 277 272 267 260 257 254 251 250 250 250 250 250 250 250 250 249 248 247 243 239 235 233 232 231 230 229
335 334 333 332 331 329 327 324 322 319 315 310 306 301 295 288 282 277 271 265 258 254 251 250 249 248 247 247 248 248 249 250 249 248 247 243 238 233 230 229 228 227 226
338 337 337 336 336 335 333 330 327 324 321 317 312 306 300 291 283 277 271 263 256 252 249 248 247 245 245 245 246 247 249 249 249 248 247 244 237 232 227 225 225 224 223
340 340 340 340 340 340 339 337 334 332 329 324 320 315 308 301 290 279 270 263 255 250 247 244 241 241 241 243 244 245 247 248 250 250 247 244 237 230 224 223 221 220 219
343 343 344 344 345 345 345 344 343 341 338 334 329 323 318 311 300 286 273 263 255 246 241 237 235 236 238 241 243 244 245 247 249 250 247 242 235 224 219 218 217 217 216
346 346 348 349 350 350 350 350 349 347 345 342 337 333 328 321 310 297 281 266 251 239 234 230 230 232 236 240 242 242 243 245 247 249 243 237 228 217 213 213 213 212 211
349 350 351 353 354 355 355 355 354 354 353 351 348 344 340 335 325 309 291 266 243 228 222 221 224 229 232 236 238 240 241 244 246 245 238 227 218 211 207 206 206 207 207
353 354 355 357 359 0 1 0 360 360 359 359 358 357 354 350 344 330 301 258 227 215 212 212 216 223 228 233 236 238 240 243 245 240 228 219 212 206 201 201 201 203 203
Height
5847 5845 5842 5839 5836 5833 5829 5827 5824 5820 5817 5813 5810 5808 5805 5803 5805 5807 5808 5808 5808 5811 5811 5811 5812 5812 5813 5813 5813 5814 5814 5815 5817 5818 5819 5819 5820 5821 5822 5823 5824 5824 5825
5840 5837 5834 5830 5827 5825 5822 5819 5816 5813 5810 5807 5803 5801 5799 5798 5799 5800 5801 5801 5803 5804 5805 5805 5806 5806 5807 5807 5807 5807 5809 5810 5811 5812 5813 5815 5816 5817 5818 5819 5819 5820 5821
5833 5829 5825 5822 5819 5816 5814 5812 5808 5805 5803 5799 5797 5795 5793 5792 5793 5793 5793 5795 5796 5796 5797 5798 5799 5800 5800 5800 5800 5801 5802 5804 5805 5806 5808 5809 5811 5812 5813 5814 5815 5815 5816
5825 5821 5817 5814 5811 5808 5806 5804 5801 5799 5796 5793 5791 5789 5788 5787 5787 5787 5788 5788 5788 5788 5789 5790 5791 5792 5793 5793 5794 5795 5795 5797 5799 5800 5802 5803 5804 5806 5807 5808 5809 5811 5812
5817 5814 5810 5806 5804 5801 5798 5796 5793 5791 5788 5786 5784 5783 5781 5780 5780 5780 5780 5781 5780 5780 5781 5782 5782 5783 5784 5785 5786 5787 5788 5789 5791 5793 5795 5796 5798 5799 5801 5802 5804 5805 5807
5811 5807 5803 5799 5796 5793 5790 5787 5784 5781 5779 5777 5775 5774 5772 5771 5771 5770 5770 5770 5770 5770 5770 5772 5773 5774 5775 5776 5777 5778 5779 5781 5782 5784 5787 5789 5790 5792 5794 5796 5797 5799 5801
5805 5801 5797 5792 5788 5785 5781 5778 5775 5772 5768 5766 5764 5762 5761 5760 5759 5759 5759 5759 5758 5759 5759 5760 5761 5762 5763 5765 5766 5768 5769 5771 5773 5775 5777 5780 5782 5784 5786 5789 5790 5792 5793
5798 5794 5789 5785 5780 5776 5772 5768 5764 5761 5757 5754 5751 5749 5747 5746 5745 5744 5744 5744 5744 5744 5745 5746 5747 5749 5750 5752 5754 5756 5758 5760 5762 5764 5766 5769 5772 5774 5777 5780 5782 5785 5786
5790 5785 5780 5775 5770 5765 5761 5756 5752 5748 5743 5740 5737 5734 5732 5730 5729 5728 5727 5727 5727 5728 5728 5730 5731 5733 5735 5737 5739 5742 5744 5747 5749 5752 5755 5757 5760 5763 5766 5769 5773 5776 5778
5781 5775 5769 5764 5759 5753 5748 5742 5737 5733 5728 5724 5720 5717 5715 5713 5711 5710 5709 5709 5709 5709 5710 5712 5714 5716 5718 5721 5723 5726 5729 5732 5735 5738 5742 5745 5748 5751 5754 5758 5762 5766 5769
5770 5764 5758 5752 5745 5739 5733 5727 5722 5716 5711 5707 5702 5699 5696 5693 5692 5691 5690 5689 5689 5690 5691 5692 5694 5697 5699 5702 5705 5709 5712 5716 5719 5723 5727 5731 5734 5738 5742 5746 5750 5754 5758
5758 5751 5745 5738 5730 5723 5717 5710 5704 5698 5693 5688 5683 5679 5676 5672 5670 5669 5668 5668 5668 5668 5669 5671 5673 5676 5679 5682 5685 5689 5693 5698 5702 5706 5711 5716 5720 5724 5728 5733 5738 5742 5747
5746 5738 5731 5723 5715 5708 5700 5692 5685 5679 5673 5667 5662 5658 5654 5651 5649 5647 5645 5645 5646 5646 5647 5649 5651 5654 5657 5661 5664 5669 5673 5678 5683 5688 5694 5699 5704 5709 5714 5719 5724 5730 5735
5734 5725 5717 5709 5700 5691 5682 5674 5667 5659 5652 5646 5641 5637 5633 5629 5627 5625 5623 5623 5623 5624 5625 5627 5630 5633 5636 5640 5644 5648 5653 5658 5663 5669 5675 5681 5687 5693 5699 5705 5711 5716 5722
5722 5713 5703 5694 5684 5675 5666 5656 5648 5640 5632 5626 5620 5616 5612 5608 5606 5604 5603 5602 5602 5603 5605 5607 5610 5613 5617 5621 5624 5629 5633 5638 5644 5650 5656 5662 5669 5676 5682 5689 5696 5702 5709
5710 5700 5690 5680 5669 5659 5648 5639 5629 5620 5612 5606 5600 5596 5592 5588 5586 5584 5583 5583 5584 5585 5587 5590 5593 5596 5601 5604 5608 5611 5615 5620 5625 5630 5636 5643 5651 5658 5666 5673 5681 5688 5695
5698 5688 5677 5666 5654 5643 5631 5621 5611 5602 5594 5587 5581 5576 5572 5569 5567 5566 5566 5566 5567 5569 5572 5576 5579 5583 5586 5590 5593 5597 5600 5604 5608 5612 5618 5625 5633 5640 5648 5657 5665 5674 5681
5688 5677 5665 5653 5641 5628 5616 5605 5594 5585 5576 5569 5563 5558 5554 5552 5550 5549 5549 5550 5552 5555 5558 5562 5566 5570 5574 5577 5580 5584 5587 5590 5593 5597 5602 5607 5615 5623 5631 5640 5649 5659 5668
5677 5665 5653 5640 5627 5615 5602 5590 5579 5569 5561 5553 5547 5541 5538 5535 5534 5534 5534 5535 5538 5541 5545 5549 5553 5557 5561 5565 5569 5572 5575 5578 5581 5584 5588 5592 5599 5607 5615 5625 5635 5644 5653
5667 5655 5642 5629 5616 5603 5589 5577 5566 5556 5547 5540 5533 5528 5524 5521 5520 5520 5521 5522 5525 5528 5533 5537 5542 5546 5550 5554 5558 5561 5564 5567 5570 5573 5576 5580 5585 5591 5599 5609 5620 5630 5640
5659 5647 5634 5621 5607 5593 5579 5567 5556 5546 5537 5528 5522 5516 5512 5510 5508 5508 5509 5511 5514 5518 5522 5527 5531 5535 5540 5544 5548 5551 5554 5557 5560 5562 5566 5569 5573 5579 5587 5597 5607 5617 5627
5653 5640 5627 5614 5599 5585 5572 5559 5548 5537 5528 5520 5513 5508 5504 5501 5499 5499 5500 5502 5505 5508 5512 5517 5522 5526 5530 5535 5538 5542 5545 5547 5550 5552 5555 5558 5563 5569 5577 5585 5595 5604 5615
5647 5634 5621 5608 5594 5580 5567 5554 5543 5532 5523 5514 5508 5502 5498 5495 5493 5492 5493 5495 5498 5501 5505 5509 5514 5519 5523 5527 5530 5533 5536 5539 5541 5543 5546 5549 5553 5559 5567 5576 5585 5595 5605
5642 5630 5617 5604 5591 5577 5564 5551 5540 5529 5520 5511 5504 5498 5494 5491 5489 5488 5489 5490 5493 5496 5500 5504 5509 5513 5517 5520 5523 5526 5529 5532 5534 5536 5538 5541 5545 5551 5558 5567 5577 5587 5597
5639 5627 5614 5601 5588 5575 5562 5550 5539 5528 5518 5510 5502 5497 5492 5489 5487 5486 5486 5487 5490 5493 5497 5501 5505 5509 5512 5515 5518 5521 5524 5526 5528 5530 5532 5535 5540 5546 5552 5561 5570 5580 5590
5637 5625 5613 5600 5588 5575 5563 5551 5539 5529 5519 5510 5503 5497 5492 5489 5486 5485 5485 5487 5489 5492 5495 5499 5503 5506 5509 5512 5515 5518 5520 5522 5524 5526 5528 5531 5535 5541 5548 5556 5566 5575 5585